Regional Weather Roundup
Issued by NWS

Home | Current Version | Previous Version | Graphics & Text | Print | Product List | Glossary On
Versions: 1 2 3 4 5 6 7 8 9 10 11 12 13 14 15 16 17 18 19 20 21 22 23 24 25 26 27 28 29 30 31 32 33 34 35 36 37 38 39 40 41 42 43 44 45 46 47 48 49 50
257
ASUS44 KMEG 231210
RWRTN
TENNESSEE HOURLY STATE WEATHER ROUNDUP
NATIONAL WEATHER SERVICE MEMPHIS TN
700 AM CDT SUN JUL 23 2017

TNZ002-004-019-021-049-052-054-088>092-231300-
WEST TENNESSEE

CITY           SKY/WX    TMP DP  RH WIND       PRES   REMARKS
MEMPHIS INTL   MOSUNNY   77  75  93 SW7       29.92R
NWS MEMPHIS      N/A     77 N/A N/A MISG        N/A
JACKSON        SUNNY     77  74  90 SW3       29.92R
SOMERVILLE       N/A     75  73  94 S7        29.91R
COVINGTON      SUNNY     79  73  83 SW3       29.91R
UNION CITY     SUNNY     79  75  89 SW5       29.88S
BOLIVAR        SUNNY     75  72  88 VRB3      29.92R
PARIS          SUNNY     77  75  94 SW7       29.90R
HUNTINGDON     SUNNY     79  75  89 CALM      29.90R
LEXINGTON      SUNNY     75  72  88 S5        29.91S
SELMER         SUNNY     75  72  88 SW6       29.92S
SAVANNAH       SUNNY     77  73  88 S5        29.92S
$$

TNZ008-025-027-028-033-062-065-066-231300-
NORTH MIDDLE TENNESSEE

CITY           SKY/WX    TMP DP  RH WIND       PRES   REMARKS
NASHVILLE      MOSUNNY   80  71  74 CALM      29.91R
PORTLAND       SUNNY     77  73  88 S3        29.92R
CLARKSVILLE    SUNNY     78  73  84 W6        29.89R
SMYRNA         MOSUNNY   76  72  87 SE3       29.92R
COOKEVILLE     PTSUNNY   77  73  88 CALM      29.95R
GALLATIN       SUNNY     77  73  88 CALM      29.94R
CROSSVILLE     CLOUDY    74  70  87 CALM      30.01R
$$

TNZ061-075-076-078-094-096-097-231300-
SOUTH MIDDLE TENNESSEE

CITY           SKY/WX    TMP DP  RH WIND       PRES   REMARKS
FAYETTEVILLE   SUNNY     77  75  94 SW5       29.96R
TULLAHOMA      SUNNY     75  72  88 SW5       29.97R
MCMINNVILLE    SUNNY     75  75 100 CALM      29.96R
COLUMBIA       SUNNY     77  73  88 SW9       29.91R
SHELBYVILLE    SUNNY     75  73  94 S7        29.94R
$$

TNZ017-018-042-046-047-231300-
NORTHEAST TENNESSEE

CITY           SKY/WX    TMP DP  RH WIND       PRES   REMARKS
TRI CITIES     CLOUDY    75  71  87 CALM      29.98R
ELIZABETHTON   CLOUDY    73  73 100 CALM      29.98S FOG
$$

TNZ012-013-036-069-073-074-231300-
CENTRAL EAST TENNESSEE

CITY           SKY/WX    TMP DP  RH WIND       PRES   REMARKS
KNOXVILLE      MOSUNNY   78  73  84 SW7       29.96R
OAK RIDGE      PTSUNNY   79  74  84 SW3       29.96R
DOWNTOWN KNOXV SUNNY     79  75  89 W5        29.94S
GATLINBURG     SUNNY     81  70  69 CALM      29.95S
MORRISTOWN     MOSUNNY   79  73  83 SW7       29.96S
JACKSBORO      MOSUNNY   77  75  94 CALM      29.98S
$$

TNZ083-085-099-231300-
SOUTHEAST TENNESSEE

CITY           SKY/WX    TMP DP  RH WIND       PRES   REMARKS
CHATTANOOGA    MOSUNNY   78  74  87 S3        29.95S
DAYTON         SUNNY     79  77  94 CALM      29.94R
$$

SKY/WX REPORTED AS FAIR MEANS FEW OR NO CLOUDS BELOW
12 THOUSAND FEET.





USA.gov is the U.S. government's official web portal to all federal, state and local government web resources and services.